TimePDT,TemperatureF,Dew PointF,Humidity,Sea Level PressureIn,VisibilityMPH,Wind Direction,Wind SpeedMPH,Gust SpeedMPH,PrecipitationIn,Events,Conditions,WindDirDegrees,DateUTC
12:55 AM,64.9,46.0,50,30.07,10.0,NNW,8.1,-,N/A,,Clear,340,2012-09-04 07:55:00
1:55 AM,64.0,46.0,52,30.07,10.0,NNW,9.2,-,N/A,,Clear,340,2012-09-04 08:55:00
2:55 AM,64.0,46.0,52,30.08,10.0,NNW,11.5,-,N/A,,Clear,340,2012-09-04 09:55:00
3:55 AM,59.0,46.0,62,30.10,10.0,WNW,4.6,-,N/A,,Clear,300,2012-09-04 10:55:00
4:55 AM,59.0,46.0,62,30.11,10.0,West,5.8,-,N/A,,Clear,280,2012-09-04 11:55:00
5:55 AM,59.0,45.0,60,30.13,10.0,WNW,8.1,-,N/A,,Clear,290,2012-09-04 12:55:00
6:55 AM,55.9,45.0,67,30.15,10.0,West,6.9,-,N/A,,Clear,280,2012-09-04 13:55:00
7:55 AM,60.1,45.0,57,30.17,10.0,WNW,6.9,-,N/A,,Clear,290,2012-09-04 14:55:00
8:55 AM,63.0,46.0,54,30.17,10.0,West,8.1,-,N/A,,Clear,270,2012-09-04 15:55:00
9:55 AM,66.0,45.0,47,30.17,10.0,West,10.4,-,N/A,,Clear,280,2012-09-04 16:55:00
10:55 AM,69.1,46.0,44,30.16,10.0,West,5.8,-,N/A,,Clear,270,2012-09-04 17:55:00
11:55 AM,75.0,46.0,36,30.14,-9999.0,North,-9999.0,-,N/A,,Unknown,0,2012-09-04 18:55:00
12:06 PM,73.4,42.8,33,30.15,10.0,Calm,Calm,-,N/A,,Clear,0,2012-09-04 19:06:00
12:55 PM,79.0,42.1,27,30.11,10.0,Calm,Calm,-,N/A,,Clear,0,2012-09-04 19:55:00
1:55 PM,82.0,39.0,22,30.10,10.0,ENE,5.8,-,N/A,,Clear,60,2012-09-04 20:55:00
2:55 PM,82.0,39.0,22,30.08,10.0,ESE,6.9,-,N/A,,Clear,110,2012-09-04 21:55:00
3:55 PM,84.0,39.0,20,30.06,10.0,SSE,10.4,-,N/A,,Clear,150,2012-09-04 22:55:00
4:55 PM,82.9,39.0,21,30.05,10.0,SSE,5.8,-,N/A,,Clear,160,2012-09-04 23:55:00
5:55 PM,82.0,39.9,22,30.03,10.0,ESE,6.9,-,N/A,,Clear,120,2012-09-05 00:55:00
6:55 PM,78.1,43.0,29,30.03,10.0,ESE,8.1,-,N/A,,Clear,110,2012-09-05 01:55:00
9:55 PM,71.1,42.1,35,30.04,10.0,Calm,Calm,-,N/A,,Clear,0,2012-09-05 04:55:00
10:55 PM,69.1,42.1,38,30.04,10.0,Calm,Calm,-,N/A,,Clear,0,2012-09-05 05:55:00
11:55 PM,66.0,43.0,43,30.05,10.0,West,3.5,-,N/A,,Clear,270,2012-09-05 06:55:00